Wind_Speed
13 9 9 9 10 12 13 13 8 1 1 3 6 8 8 6 5 7 7 7 9 6 5 7 5 3 6 9 11 15 17 15 15 16 16 17 18 18 18 17 19 19 19 19 20 20 20 19 19 19 19 20 19 19 20 20 20 19 18 18 17 18 18 18 18 18 18 17 16 15 13 11 11 11 11 10 8 8 8 9 9 8 7 7 7 7
12 9 10 12 10 12 14 12 6 2 3 3 5 7 7 6 5 7 6 6 6 6 5 5 5 4 4 7 11 15 16 16 17 18 18 18 18 18 18 18 18 19 19 19 20 21 21 20 19 19 19 20 20 20 21 21 20 20 19 18 18 19 19 19 20 20 19 18 17 15 13 11 11 11 11 9 8 7 7 9 9 8 8 7 7 7
10 10 11 12 10 10 12 11 9 6 5 5 5 6 6 7 6 6 6 7 5 5 3 3 4 4 5 6 11 15 15 15 18 19 19 20 19 19 20 19 19 19 20 21 21 22 22 21 20 19 19 20 21 21 21 21 21 20 20 20 19 19 20 20 21 21 20 19 18 15 13 11 10 11 11 9 9 8 7 8 9 8 8 8 7 7
8 10 11 11 9 10 12 11 11 7 6 6 6 7 6 7 6 4 7 7 4 4 1 0 5 4 5 6 9 14 15 14 17 19 19 20 21 20 21 20 20 20 21 22 22 23 23 22 22 21 19 20 20 20 21 21 21 21 22 21 20 20 20 21 22 22 21 20 20 17 16 14 12 11 12 10 11 10 9 8 8 8 8 8 8 7
7 7 9 11 11 13 13 11 11 8 7 8 7 8 5 7 6 2 5 5 5 5 4 3 6 5 5 6 8 11 14 13 15 18 19 20 20 21 20 21 22 21 21 22 23 24 24 24 23 22 21 20 21 21 21 22 22 22 23 23 22 20 20 20 21 23 22 21 19 18 16 16 14 13 13 11 10 10 10 9 8 8 8 8 8 8
7 5 9 12 12 14 13 11 12 10 8 8 10 9 3 3 5 2 2 3 5 7 6 4 7 5 5 6 6 9 11 11 13 15 16 17 18 20 20 20 22 22 22 23 23 24 25 25 24 23 22 21 21 21 21 21 21 22 23 23 22 21 20 20 20 22 23 21 20 19 17 17 16 14 13 12 10 10 10 8 8 9 8 9 9 8
5 8 11 12 12 15 13 11 12 11 8 6 8 10 6 3 5 5 4 5 5 3 4 3 7 4 7 6 5 8 9 9 10 10 13 15 16 18 19 20 22 23 24 24 24 24 25 26 26 25 24 23 22 22 21 21 21 22 23 23 22 22 21 20 20 22 24 22 21 20 19 18 16 14 14 13 11 10 10 9 9 9 9 9 9 8
6 9 11 12 12 13 11 10 12 12 10 4 7 7 8 7 7 7 6 6 5 2 2 5 5 4 5 5 5 5 7 6 8 7 9 12 14 16 17 18 21 22 23 24 24 25 26 27 27 26 26 25 23 22 21 21 21 22 22 22 22 22 22 22 21 22 24 23 22 21 19 18 17 14 14 13 12 11 11 10 10 9 9 9 9 9
9 10 11 12 12 10 9 10 11 12 12 3 6 4 7 6 7 7 7 7 3 2 5 7 4 5 5 6 5 4 6 5 6 6 8 11 14 16 17 18 20 21 21 23 24 26 27 27 27 27 26 25 24 22 22 22 22 23 22 20 21 22 23 23 22 22 23 24 23 22 20 20 18 15 14 13 14 13 12 11 11 10 10 9 9 9
9 10 10 11 10 8 11 12 10 12 12 4 4 4 5 5 5 6 7 7 4 4 8 7 7 7 4 6 4 4 5 4 3 2 3 8 14 16 18 19 20 21 22 22 23 24 26 27 27 27 26 26 25 24 23 22 22 23 22 20 21 21 22 23 23 22 23 24 24 23 22 21 19 17 16 14 15 14 12 12 11 10 10 9 9 9
7 7 8 8 4 3 8 11 9 11 11 5 4 6 6 6 5 5 6 5 5 6 9 9 8 9 5 4 3 4 5 5 4 3 3 1 7 13 17 18 19 21 23 23 23 23 24 25 26 26 26 27 26 25 24 23 23 24 24 22 21 21 21 23 23 22 23 24 24 24 23 22 20 19 18 17 16 15 13 13 12 11 10 10 9 8
8 8 8 3 2 2 5 7 7 10 11 7 6 7 7 6 5 5 5 5 6 7 10 10 8 10 7 3 5 5 6 7 6 5 6 6 4 6 12 16 18 20 22 24 24 24 24 24 25 26 26 27 27 26 25 25 24 25 25 24 22 22 22 22 23 23 23 24 25 24 23 22 21 20 19 18 18 17 15 14 13 12 12 11 10 9
8 7 7 5 2 4 7 7 6 9 11 9 8 8 8 7 6 7 8 7 8 6 7 10 9 7 3 5 6 7 8 8 7 7 7 7 7 6 7 12 17 19 21 22 24 24 25 25 26 27 27 27 27 27 27 26 25 26 27 26 24 24 23 22 22 22 23 24 25 25 24 23 21 21 20 19 19 19 18 16 15 14 13 12 11 11
6 7 8 8 6 4 8 9 6 7 10 10 9 9 8 7 8 9 9 8 9 7 5 7 9 7 5 6 6 8 9 9 9 9 9 9 8 7 7 9 15 18 19 21 23 24 25 26 27 28 28 28 28 28 28 27 26 26 28 28 26 25 24 23 22 22 23 24 24 25 25 24 23 21 20 20 20 20 19 18 17 15 13 12 12 12
7 7 6 6 4 2 6 5 3 4 10 11 9 9 8 7 7 8 8 9 9 9 8 8 7 6 6 6 6 8 10 11 12 11 11 12 11 8 6 4 10 16 18 19 21 23 25 27 27 28 28 28 28 29 28 28 27 27 29 29 27 26 25 24 23 23 22 23 23 24 25 25 24 22 21 20 20 21 20 19 18 17 15 12 12 12
5 6 5 4 3 1 2 2 5 5 8 10 9 9 8 6 5 5 5 8 9 9 8 8 4 2 6 9 8 8 10 12 13 13 14 15 14 11 10 8 3 8 14 18 20 22 23 26 27 27 28 29 29 29 29 28 28 29 30 30 28 27 26 25 24 24 23 23 23 24 24 25 25 24 23 22 21 21 21 20 19 19 17 14 13 13
3 6 6 5 3 1 2 1 3 5 4 6 8 9 4 1 4 3 3 6 8 8 8 8 6 7 8 8 7 7 9 12 13 15 16 17 17 15 13 13 12 8 5 10 17 21 22 24 26 27 28 28 29 30 30 29 29 30 31 30 29 28 27 26 25 24 24 24 24 23 23 24 25 25 24 23 22 20 20 21 21 20 19 17 16 15
1 5 7 4 5 5 2 1 2 2 4 3 7 7 4 1 4 4 3 6 9 7 7 11 11 9 8 5 5 8 10 13 13 14 16 17 18 17 16 15 15 15 13 9 9 17 21 22 24 25 26 27 28 28 29 30 30 30 31 29 28 29 28 27 26 24 24 25 25 24 23 23 24 25 25 24 23 21 20 21 20 20 19 18 18 16
2 3 7 4 4 6 3 3 5 4 2 4 1 4 4 4 7 6 5 6 9 9 7 12 12 6 2 1 6 9 12 13 12 13 14 17 19 18 18 18 17 16 14 13 10 11 17 21 23 24 24 25 26 27 27 29 30 30 30 29 28 28 27 27 26 25 25 25 26 25 24 23 23 24 24 25 25 23 23 22 20 19 19 19 18 18
3 2 5 5 5 6 3 2 3 5 4 3 3 3 4 5 5 6 7 6 7 9 8 10 10 5 4 3 5 8 10 10 11 12 12 15 18 18 18 19 18 16 15 13 9 11 14 17 20 22 23 23 24 26 26 27 28 28 28 29 28 27 27 27 27 27 27 26 26 26 25 23 22 22 23 24 25 26 25 23 21 19 19 19 19 19
3 4 3 7 7 7 3 3 4 3 1 4 6 6 5 4 3 3 7 5 5 7 8 9 8 5 5 3 5 7 8 8 10 10 10 14 16 17 18 18 18 17 15 16 9 5 10 14 17 18 21 22 23 24 25 26 27 27 26 26 26 27 27 27 28 29 29 27 27 27 26 25 23 22 22 23 24 26 26 25 23 21 20 20 20 20
2 4 3 6 6 4 5 6 5 6 6 3 1 1 2 4 4 6 8 7 5 5 4 7 7 6 5 2 4 6 7 8 10 10 11 14 15 16 17 18 19 18 16 18 18 10 3 5 11 14 18 21 21 21 23 25 25 26 26 25 25 26 26 26 27 29 30 29 28 27 27 26 25 23 22 22 23 24 25 25 25 24 22 21 21 21
4 3 2 5 5 6 8 4 3 4 4 4 4 3 2 2 3 6 6 6 7 5 4 5 5 7 4 1 4 7 8 9 10 11 12 14 15 16 18 19 20 21 20 20 21 19 14 8 5 7 11 16 20 21 21 22 24 24 25 25 25 26 26 26 25 27 30 30 29 28 27 27 27 26 23 22 23 23 23 24 25 25 24 22 21 21
4 2 2 6 6 6 6 3 1 1 2 1 4 5 3 2 2 4 4 3 6 6 3 7 5 6 3 1 4 8 10 10 10 12 12 13 16 17 18 20 21 22 23 23 23 21 17 11 8 7 5 5 14 20 19 19 21 22 23 24 25 25 26 26 25 25 27 29 29 28 27 27 27 27 26 24 24 23 22 23 24 25 25 24 23 22
3 1 1 4 6 6 6 5 4 2 1 2 4 5 5 5 3 3 3 3 5 1 2 7 4 6 4 5 5 8 10 11 11 13 13 13 15 17 19 20 21 23 25 25 24 23 19 14 10 7 7 6 4 10 15 18 19 19 21 23 23 24 24 24 24 25 26 27 28 28 29 28 27 28 27 26 25 24 23 22 22 23 25 25 24 23
3 2 2 3 6 6 5 4 3 3 4 3 4 5 6 7 5 3 2 5 5 1 2 3 4 9 7 7 8 7 8 9 11 12 13 14 14 16 18 19 21 22 24 26 26 24 22 19 14 10 7 6 5 2 7 14 18 19 20 21 21 22 23 24 23 24 25 26 26 27 29 29 28 28 28 27 26 25 23 23 22 22 23 25 25 24
1 2 4 4 2 2 3 4 4 2 3 4 4 5 5 7 7 5 3 4 2 3 2 4 7 13 11 9 8 7 7 8 10 11 12 13 14 15 16 17 20 22 24 27 28 26 24 22 18 14 9 5 3 3 2 5 12 15 17 20 21 21 22 23 24 24 25 24 24 25 27 28 29 29 28 28 27 26 24 23 23 23 23 23 24 24
1 2 3 5 6 6 7 7 5 3 3 4 3 3 4 6 6 5 1 2 3 2 4 5 6 11 12 9 8 7 7 8 9 11 11 12 13 14 15 16 19 22 25 28 29 28 27 25 23 18 13 9 5 3 3 3 7 11 14 16 18 19 20 22 23 24 25 24 23 24 26 26 27 28 28 28 28 27 26 25 24 24 24 24 24 24
1 2 2 2 5 6 6 6 4 3 3 2 2 3 3 3 3 4 4 4 5 2 5 7 5 8 10 9 8 8 7 7 9 10 10 11 12 13 15 17 19 21 23 27 29 29 28 27 25 23 20 14 8 3 2 3 4 8 12 15 16 17 18 20 22 23 24 24 24 25 26 26 25 26 28 29 29 28 28 27 26 25 25 26 25 24
2 2 2 2 4 5 4 3 3 3 1 0 1 2 1 2 2 2 2 2 2 3 6 8 6 7 8 7 8 7 6 7 8 9 10 12 12 13 14 16 18 19 20 23 25 27 27 26 25 24 24 21 15 8 2 1 4 4 4 10 16 17 16 17 20 22 23 24 26 27 27 27 26 27 29 30 29 28 27 28 28 27 27 28 27 26
2 1 1 2 3 4 2 1 1 2 2 1 1 1 1 1 2 2 1 1 1 2 4 5 5 5 6 7 8 6 4 5 7 9 10 12 13 13 14 16 16 17 18 19 22 24 25 25 24 23 23 23 22 17 10 3 2 3 1 3 10 16 18 18 19 22 23 23 24 24 25 27 27 28 29 30 30 28 27 27 28 29 30 29 29 28
1 2 3 3 3 4 3 1 0 1 3 4 4 3 2 3 2 2 2 1 1 2 5 5 4 4 6 6 7 5 3 3 5 8 9 11 13 13 14 15 15 16 17 18 19 21 23 24 24 22 21 21 21 20 18 13 7 0 3 3 5 11 16 18 18 20 22 22 22 22 25 27 27 27 27 28 29 28 28 28 29 30 31 31 30 30
0 2 3 3 3 4 4 1 2 3 5 5 3 3 2 2 2 2 3 2 0 1 2 3 2 6 6 4 5 4 2 2 4 7 8 10 12 12 13 14 15 15 16 17 18 19 21 23 23 22 21 19 18 18 18 18 16 10 2 3 4 8 13 17 19 20 21 21 21 22 24 25 26 27 26 25 26 27 28 29 29 29 30 30 30 30
1 2 2 1 2 3 4 2 3 5 5 3 5 4 2 1 1 3 3 4 2 1 1 3 5 6 5 2 3 4 3 3 4 5 8 10 10 11 12 13 14 15 15 16 17 18 18 20 22 22 20 19 18 15 14 14 16 15 10 4 2 7 11 15 19 22 22 22 21 21 23 23 23 25 25 25 26 27 28 28 27 27 29 29 28 30
1 2 1 1 2 2 3 4 5 4 2 5 6 4 2 2 0 1 3 3 2 2 3 4 5 5 3 2 2 3 3 2 2 2 6 9 9 10 11 12 13 14 14 15 16 17 18 18 20 22 20 19 19 17 14 12 12 14 14 9 6 4 8 11 15 19 23 24 21 20 22 21 19 20 21 23 25 26 27 27 25 25 27 27 26 26
1 1 1 2 2 1 3 5 3 1 4 5 4 4 2 1 2 3 4 5 4 3 3 4 6 5 2 1 1 2 4 1 2 4 3 7 9 10 10 11 12 13 14 15 15 15 17 17 18 20 20 19 19 18 16 12 10 11 13 12 9 5 5 8 11 15 20 23 22 20 19 18 18 18 19 20 22 25 26 26 25 25 25 25 24 24
3 2 1 2 2 2 3 4 1 2 4 6 5 4 2 1 1 1 2 5 7 5 4 5 6 5 3 2 1 3 4 2 4 5 5 7 8 9 9 10 11 12 12 13 13 13 15 16 16 16 18 19 19 17 17 15 11 9 11 12 11 8 6 7 10 12 16 21 23 21 18 17 17 17 17 18 20 23 25 26 25 25 25 25 25 25
2 2 2 2 2 2 3 3 3 3 3 4 6 6 3 2 3 1 4 3 8 8 5 5 6 5 4 3 2 3 4 5 6 5 6 7 8 9 9 9 10 12 12 13 13 13 14 16 15 15 15 17 19 18 16 16 14 10 10 11 11 11 8 6 6 8 13 20 25 24 22 19 17 16 16 17 19 20 22 24 25 25 25 25 25 25
2 2 3 3 3 3 4 4 4 4 1 5 7 7 5 3 2 2 5 4 7 9 5 5 6 6 4 3 2 4 6 7 5 5 6 9 10 10 10 10 11 12 13 13 13 13 16 16 15 15 15 14 17 18 16 16 14 12 10 10 10 10 9 6 4 3 6 14 21 25 26 25 23 20 18 17 19 20 20 22 24 25 26 27 26 24
4 3 3 5 4 2 3 4 3 2 2 6 6 6 6 4 2 6 6 3 5 6 4 4 5 5 4 4 4 4 6 6 2 7 11 13 14 13 12 12 12 13 14 14 14 15 16 16 14 15 15 15 16 17 16 16 15 13 11 10 9 10 10 9 6 3 3 5 10 17 22 24 24 23 23 21 20 20 20 21 23 24 25 27 25 23
4 3 3 4 4 3 4 4 4 1 4 7 8 8 7 4 4 6 3 4 7 6 5 4 4 4 4 5 5 4 4 6 8 12 13 14 15 15 15 14 14 14 14 14 15 17 16 14 15 16 15 15 16 16 15 16 16 15 13 11 10 9 10 11 9 6 4 3 4 7 12 15 16 17 20 21 21 21 20 21 22 24 24 25 25 24
3 3 4 4 4 3 3 3 4 1 4 6 8 8 7 5 4 1 3 7 7 6 5 4 3 3 4 5 5 5 5 6 8 10 11 12 14 15 17 17 16 16 16 16 17 17 15 14 16 17 16 15 15 16 15 15 16 15 13 12 11 8 8 10 11 10 7 4 4 5 7 10 11 11 14 16 17 19 19 19 20 22 23 23 24 27
3 3 4 5 4 3 3 4 5 2 4 9 9 7 7 6 0 5 6 5 4 3 2 3 4 3 4 6 6 6 7 7 8 8 9 10 12 13 16 17 18 19 19 19 18 16 15 16 17 17 17 17 17 18 18 17 17 16 14 13 12 10 8 7 9 9 8 6 5 6 8 10 11 11 12 12 13 16 17 17 18 19 21 22 24 27
4 4 4 3 3 4 4 3 1 2 7 11 8 2 4 5 2 4 2 2 2 4 5 5 5 5 5 6 7 8 8 8 8 7 8 10 11 13 14 17 19 20 20 20 20 18 19 19 19 18 19 19 20 22 21 20 19 18 17 15 14 14 12 8 7 8 6 6 7 7 9 11 11 11 11 10 10 12 13 13 13 15 18 22 22 23
4 3 3 2 3 4 5 2 3 5 7 9 6 3 2 4 3 2 4 5 6 8 8 7 7 5 5 6 8 9 9 9 9 9 9 10 11 13 14 16 19 21 22 21 22 22 22 22 22 22 21 19 21 25 25 23 21 20 19 19 17 17 16 13 11 9 6 6 9 10 9 10 10 11 12 11 11 11 11 12 12 13 15 18 20 20
3 2 2 2 2 3 8 8 5 4 5 7 7 6 5 5 5 5 5 7 7 7 8 8 8 6 6 7 8 9 10 10 10 11 11 11 12 13 14 16 18 21 23 23 23 24 24 24 24 24 23 22 23 25 26 25 23 22 22 22 20 19 19 18 16 14 10 7 8 9 10 10 10 10 12 13 14 14 12 12 12 12 13 15 17 19
6 6 5 5 3 2 4 6 6 7 8 8 9 9 9 9 8 7 7 8 7 7 8 8 8 8 8 8 9 10 11 11 12 13 13 13 13 14 14 16 18 21 24 25 26 26 27 26 26 25 25 25 25 25 26 26 25 24 23 22 21 20 21 21 20 18 16 12 10 9 10 12 11 10 10 12 15 16 16 15 14 13 14 16 17 18
7 9 7 7 7 7 6 5 4 5 7 8 9 10 11 11 10 9 9 8 7 8 8 8 9 9 9 9 9 10 11 12 13 14 15 14 15 15 15 16 18 21 24 26 27 27 27 26 26 26 26 27 26 26 27 29 29 27 24 23 23 22 22 22 21 21 19 17 14 13 13 13 13 12 9 9 12 16 18 18 17 16 17 18 18 18
7 8 6 5 7 9 10 10 10 9 9 12 14 14 13 12 10 9 9 9 9 9 9 9 10 9 9 9 9 10 13 14 14 16 17 17 17 17 17 17 18 21 23 25 26 26 25 25 25 26 27 28 27 27 28 29 30 30 27 25 25 24 23 23 22 22 21 19 17 16 15 15 15 14 13 11 11 15 18 20 19 19 20 21 21 20
7 6 5 5 6 7 6 6 7 8 8 10 12 14 14 13 12 11 10 10 10 10 10 10 10 10 10 11 11 12 15 16 17 18 19 19 19 19 20 20 20 21 21 22 23 23 22 23 23 25 27 28 28 28 28 28 30 31 30 27 25 24 24 23 22 22 22 21 18 18 18 17 15 16 17 16 15 17 21 23 22 21 23 24 25 25
11 10 8 7 8 9 8 8 8 8 10 10 8 10 12 13 13 13 12 11 11 10 10 10 10 10 10 12 13 14 16 17 18 19 20 21 21 21 22 22 21 21 21 21 21 22 23 23 23 24 27 27 27 28 27 26 26 28 29 28 25 24 23 19 18 20 22 21 20 19 19 19 18 17 17 17 17 19 22 23 24 24 25 26 27 29
Wind_Direction
190 196 204 206 202 195 197 209 210 21 315 204 185 196 201 193 147 115 120 149 176 204 219 217 238 219 161 159 164 168 174 184 186 186 189 186 186 190 192 194 191 189 188 185 185 185 185 185 184 185 186 188 189 191 194 198 198 196 195 191 187 186 185 185 186 184 179 176 175 173 173 175 176 176 170 167 167 167 173 172 166 164 162 158 155 154
192 212 208 205 208 195 195 206 205 197 204 212 204 186 196 206 145 110 129 152 183 214 201 197 232 228 184 167 166 172 179 184 186 186 190 190 189 190 194 196 192 189 187 183 183 185 185 184 183 183 184 186 189 192 196 199 198 198 196 196 192 188 189 189 188 188 184 181 178 175 175 176 181 181 173 170 170 168 177 173 163 164 165 163 161 157
195 220 213 201 205 195 188 196 206 217 213 210 214 202 205 198 149 118 135 151 187 228 170 153 244 213 175 178 173 181 190 188 188 187 187 191 191 192 196 196 193 190 187 186 185 185 186 185 183 183 184 187 189 193 197 199 199 199 198 199 198 193 192 193 192 192 189 186 180 176 177 175 178 182 174 172 174 168 173 177 170 168 169 167 164 160
195 217 207 186 188 192 183 188 203 213 218 215 209 212 202 179 183 161 138 148 172 251 264 187 264 226 164 178 180 188 196 192 192 189 187 190 192 194 196 194 194 193 189 188 188 187 187 187 185 185 185 186 189 192 195 197 198 200 200 202 201 198 196 197 196 194 193 192 185 179 179 177 176 180 180 180 181 176 174 182 183 178 174 170 169 168
204 202 184 176 185 194 186 185 199 206 209 212 213 224 201 170 207 201 116 160 191 214 237 263 251 219 165 182 183 186 194 193 193 191 190 192 193 196 197 194 193 193 192 191 190 190 189 188 187 187 188 188 190 192 193 194 196 199 203 204 203 201 199 200 201 197 197 197 192 186 183 182 182 182 184 184 185 187 183 184 191 187 179 175 175 174
209 164 163 182 191 196 196 190 199 209 209 207 211 226 231 166 201 193 136 214 223 192 187 252 248 194 160 194 181 172 187 191 189 192 195 195 194 196 200 197 193 192 194 195 193 191 191 190 189 189 190 191 192 194 194 194 196 199 203 206 205 204 201 201 203 201 200 199 196 194 190 188 189 187 189 188 187 195 191 185 194 193 184 178 177 177
192 159 177 194 192 196 202 200 199 208 222 211 191 203 221 231 219 218 216 226 239 189 142 244 262 197 168 180 156 154 173 181 183 193 198 198 199 200 201 200 197 195 195 196 196 194 193 192 191 192 193 194 194 195 195 195 197 200 205 207 206 205 204 203 203 203 204 202 201 201 198 196 195 193 196 194 189 194 193 186 191 194 188 181 177 181
172 164 184 193 192 197 203 203 191 199 227 198 132 179 209 224 231 226 228 232 252 319 160 209 252 251 185 134 100 139 153 158 172 191 202 202 206 207 208 206 202 200 196 195 196 196 196 194 193 194 194 196 196 195 196 196 198 203 208 209 207 208 207 207 206 205 205 204 204 206 203 203 202 199 203 201 195 195 195 190 188 190 191 187 182 185
171 181 182 185 195 201 201 203 182 189 226 201 111 186 213 216 237 231 229 231 237 283 232 195 193 245 206 122 99 125 127 127 151 182 202 205 208 209 210 210 207 206 202 199 198 197 197 195 195 195 195 197 197 196 197 197 199 207 211 208 207 209 209 210 209 208 208 207 208 208 207 208 206 203 206 207 204 201 198 195 191 190 192 193 191 192
173 195 185 185 199 203 200 203 184 188 220 214 135 212 218 208 231 233 230 227 207 233 236 196 182 229 206 134 129 104 94 79 91 145 201 206 210 210 210 209 207 207 206 205 202 200 199 196 195 195 195 196 197 197 198 198 200 208 213 210 208 208 210 213 212 211 211 210 211 211 211 212 210 207 207 208 208 205 201 200 195 195 197 196 197 199
143 189 196 198 222 229 196 193 189 199 216 215 187 204 201 193 205 216 223 223 212 222 231 209 195 223 216 117 98 83 66 31 24 28 15 301 218 213 213 212 208 205 204 205 204 203 202 199 196 195 195 196 197 196 197 198 199 207 214 212 211 210 210 215 216 213 213 214 214 215 214 216 215 213 212 211 210 206 203 203 199 200 202 201 201 201
152 184 186 179 319 289 200 187 191 208 213 212 205 199 189 178 184 202 200 206 220 221 221 207 195 221 222 114 80 80 59 31 20 15 10 357 322 241 223 216 212 210 206 204 202 201 203 200 198 198 197 196 196 196 196 198 200 207 215 214 212 214 213 215 218 216 215 216 217 217 217 219 218 218 217 215 214 209 206 204 203 205 205 206 206 204
167 169 148 134 153 209 216 202 184 200 208 207 204 197 190 177 178 199 192 195 218 221 209 196 195 216 192 91 75 69 51 35 26 17 12 360 345 318 265 229 215 212 209 206 203 200 200 199 199 199 198 197 196 195 196 197 198 205 215 216 214 215 215 215 218 218 218 218 219 219 219 219 220 221 220 219 218 215 211 208 206 208 210 210 211 210
156 145 156 167 156 182 224 214 185 187 196 201 202 194 193 187 183 196 195 193 208 206 181 179 195 198 136 89 65 67 51 35 33 27 21 13 355 334 301 250 219 212 210 208 205 201 199 198 199 199 198 198 197 197 196 197 197 202 213 217 214 216 217 217 218 219 220 221 222 221 220 221 221 222 221 220 221 219 216 214 210 209 212 215 217 216
176 155 166 177 131 156 221 237 286 220 192 197 207 201 204 210 195 195 197 193 196 191 172 168 193 204 160 114 72 73 62 43 38 32 29 24 12 1 347 287 220 211 211 211 209 206 203 200 198 198 198 198 198 198 198 199 198 201 213 217 214 215 218 220 221 220 221 223 224 224 223 222 223 223 223 222 222 221 220 218 215 212 212 215 220 222
187 129 103 89 55 352 235 307 309 262 195 187 203 209 212 228 223 214 207 196 193 186 175 176 176 130 131 118 86 72 64 50 39 31 30 27 21 22 22 13 334 216 211 212 212 211 208 203 199 197 198 198 199 199 199 200 199 204 215 218 215 216 219 221 224 223 223 224 225 226 225 224 224 224 225 225 224 224 223 221 219 218 217 215 219 223
182 116 105 118 113 42 350 333 272 265 222 176 196 209 195 273 262 248 198 189 202 196 179 182 150 107 134 130 82 58 52 44 34 29 27 24 24 26 24 15 3 343 276 231 220 215 211 207 203 200 199 198 199 200 201 201 201 207 218 221 218 219 220 222 225 226 226 225 225 227 227 225 226 225 225 226 227 226 227 227 223 222 222 220 221 224
217 124 121 138 129 102 41 259 178 261 276 214 196 190 144 40 272 262 218 184 199 199 175 185 171 140 168 169 56 31 28 27 24 25 25 23 23 22 20 15 5 353 337 313 256 220 212 210 208 204 203 202 201 201 202 204 206 213 222 224 222 221 222 222 224 226 227 226 225 227 227 226 226 227 226 227 228 228 229 230 227 224 223 222 223 224
303 133 127 137 135 127 145 214 175 166 260 301 275 167 168 216 214 218 230 193 194 203 185 184 178 146 147 120 36 20 18 16 15 21 23 22 20 18 15 13 9 2 349 333 302 237 214 210 211 209 207 206 204 202 204 207 210 216 223 226 225 225 224 223 223 225 226 226 226 226 227 226 225 226 227 227 229 229 229 230 229 227 225 223 223 224
288 213 135 135 152 158 166 230 186 158 177 237 246 192 208 242 215 207 223 210 203 209 193 182 179 140 74 50 31 26 25 16 14 22 23 20 19 17 16 13 11 10 5 351 310 246 222 212 210 211 211 209 208 205 203 206 208 212 219 224 224 223 225 226 225 226 227 226 228 228 227 227 225 225 226 226 228 229 229 230 230 229 228 225 224 225
264 239 154 135 159 185 160 49 30 33 103 207 210 196 191 221 247 227 221 225 241 226 199 191 186 133 83 51 32 43 41 27 24 26 26 23 19 18 18 17 16 15 14 12 359 258 228 219 211 211 212 212 213 209 204 204 206 208 211 216 219 218 220 224 225 227 229 228 229 230 229 229 227 225 225 226 227 230 230 230 230 230 230 228 226 224
296 244 191 153 159 157 100 61 35 16 6 357 231 201 203 220 225 215 208 210 245 264 238 207 182 117 87 56 50 57 53 44 37 32 32 28 21 21 21 19 21 21 19 19 20 30 64 201 208 211 214 214 213 211 208 206 206 207 208 210 213 212 214 218 219 224 231 231 230 231 231 230 230 228 226 226 228 230 231 231 231 231 231 232 230 226
327 269 179 132 113 101 103 83 34 17 2 15 40 25 322 270 246 231 220 204 210 235 279 243 172 112 99 91 76 74 67 61 51 41 41 35 27 24 22 20 22 23 23 23 25 35 54 80 135 179 203 213 215 214 212 210 209 209 209 208 210 210 212 214 213 218 230 234 231 231 232 232 232 232 229 228 229 229 230 230 231 232 232 233 233 231
317 260 129 113 102 104 125 134 44 336 271 147 60 31 353 340 322 293 312 287 218 201 228 237 186 118 125 166 98 89 77 69 62 53 48 41 33 27 25 24 24 23 25 28 30 36 48 67 94 109 115 185 213 215 215 215 214 214 212 210 210 211 211 212 209 211 224 233 232 230 232 233 233 234 233 231 229 228 227 227 230 233 233 232 232 234
332 283 174 156 154 154 167 177 178 191 200 108 67 38 21 17 344 294 307 276 237 200 282 247 189 113 144 171 125 100 83 70 64 59 53 48 39 31 29 27 26 27 29 32 35 38 43 53 64 73 77 84 156 210 220 221 219 218 216 213 213 213 211 211 209 208 217 229 232 230 232 232 232 233 234 233 230 228 227 224 224 230 234 233 230 230
325 8 328 226 191 183 185 178 161 151 140 107 66 48 33 19 356 317 243 219 216 137 340 279 136 117 138 151 129 107 90 74 65 61 57 52 47 41 35 30 29 30 31 35 41 43 43 46 48 55 75 86 90 140 221 225 223 222 220 217 215 215 213 212 211 209 212 221 227 228 230 231 232 232 232 234 232 227 226 224 222 225 232 235 232 229
293 49 9 353 13 63 97 77 43 43 134 120 73 53 34 19 1 327 248 218 215 165 105 60 114 136 138 137 129 107 87 75 63 57 55 51 48 48 43 37 35 34 34 38 44 46 47 46 44 47 59 71 80 92 127 214 222 224 224 222 219 218 217 215 214 212 212 215 220 224 227 229 231 233 232 233 234 230 226 226 224 224 228 234 237 233
200 111 36 34 48 56 67 71 55 44 78 85 67 51 33 20 3 346 5 52 350 242 146 91 124 147 135 128 125 101 78 72 60 50 48 46 45 46 44 43 40 36 36 40 43 45 45 45 44 44 46 50 53 68 95 161 209 222 225 223 222 223 221 217 215 214 214 215 216 219 226 228 228 232 234 234 237 236 232 229 228 227 228 232 237 237
249 103 70 70 83 75 63 65 60 52 69 73 46 44 36 17 8 21 51 48 359 351 117 110 121 139 134 129 114 85 64 64 61 51 46 44 45 45 42 43 42 36 34 35 38 42 41 40 42 44 42 41 40 51 104 134 180 210 223 223 220 223 225 220 217 216 215 218 222 225 230 231 226 228 236 239 240 240 238 236 235 234 234 236 239 240
318 85 99 139 117 95 67 65 54 26 34 134 79 74 50 5 25 39 29 29 17 43 101 119 121 120 123 118 104 90 71 64 59 50 45 40 40 43 41 41 40 37 33 29 30 37 40 38 38 43 45 42 39 40 48 149 151 163 222 232 222 221 225 225 223 221 218 222 230 234 238 241 237 233 238 243 244 243 242 241 240 239 240 242 245 245
303 114 136 204 153 120 80 68 59 354 329 270 236 131 149 187 193 196 198 183 187 145 125 137 147 133 117 109 112 110 87 65 48 39 42 38 33 38 41 39 37 34 32 28 24 29 35 37 36 39 43 42 40 39 40 48 158 156 58 273 237 224 220 223 229 228 225 225 229 232 237 245 247 244 243 246 249 247 245 245 244 243 244 247 249 248
290 146 165 224 209 141 123 152 246 313 275 246 223 192 185 199 194 160 143 160 224 158 150 178 196 145 119 124 130 123 109 88 45 27 32 35 31 33 37 37 34 30 28 25 21 20 24 31 33 33 35 37 38 38 39 42 43 36 207 226 257 237 220 216 224 231 231 230 229 229 234 243 249 250 248 248 251 251 250 250 250 249 249 251 252 252
288 165 169 223 232 140 132 208 276 253 241 226 175 138 166 189 166 144 140 131 30 236 190 194 139 93 98 128 135 115 111 104 58 30 25 30 30 31 34 33 31 29 25 22 20 17 16 20 25 28 29 29 31 33 35 36 35 30 13 220 241 245 231 219 217 222 229 232 231 231 234 241 247 252 253 251 251 253 253 254 253 253 253 253 253 254
169 226 186 237 247 145 137 205 250 239 227 145 94 86 80 90 185 192 161 136 138 255 4 54 78 92 96 106 96 73 45 59 80 57 39 35 30 27 31 31 27 26 24 20 17 15 12 11 13 19 25 27 26 26 30 33 33 32 29 17 279 247 241 233 223 219 221 224 227 231 234 238 243 250 254 255 253 253 253 253 254 255 255 254 253 255
182 219 185 224 254 154 144 205 232 232 151 100 94 96 80 41 317 156 127 127 146 151 115 96 99 106 91 57 70 44 15 47 136 117 54 43 35 28 27 26 24 21 20 17 14 12 10 7 6 8 15 23 23 19 23 29 30 31 34 31 9 291 249 245 239 230 223 220 220 225 231 235 238 242 247 252 254 254 253 253 254 254 256 255 252 252
280 239 195 210 240 189 179 210 224 115 118 131 129 126 135 182 198 184 175 171 172 180 175 150 126 121 126 135 118 341 342 353 187 177 92 50 41 32 23 19 18 15 13 12 10 9 8 5 3 3 5 9 13 16 18 21 21 25 31 32 19 343 268 244 239 233 225 220 218 221 226 229 232 234 238 245 249 251 253 253 253 253 256 256 251 246
303 283 247 211 221 242 235 222 172 117 166 178 161 141 148 143 139 248 249 173 161 178 204 173 139 142 185 189 186 314 320 285 210 168 112 60 38 29 19 12 8 6 6 4 2 3 3 0 358 0 0 357 358 7 15 14 11 16 21 24 23 8 324 264 239 229 223 219 220 222 224 225 228 232 236 241 245 248 252 254 253 252 254 255 253 251
299 296 298 265 212 241 273 255 212 221 211 156 124 112 102 74 77 358 300 211 165 166 194 193 163 161 197 213 226 286 289 256 219 149 89 42 19 13 7 1 356 355 355 354 353 352 351 353 354 356 357 353 352 358 5 6 8 10 9 13 20 18 358 310 264 240 228 225 227 230 231 233 235 238 241 242 243 245 248 251 253 253 254 254 252 252
249 262 279 272 243 229 260 262 241 245 179 108 114 124 132 127 127 217 259 226 156 142 159 199 185 175 199 234 258 278 265 238 196 101 44 3 357 355 347 345 345 343 342 344 345 343 341 344 348 351 351 349 350 355 356 356 0 3 2 5 12 10 359 338 316 279 236 230 232 234 236 237 240 243 246 247 247 247 247 250 253 254 255 256 252 248
217 223 230 247 249 230 247 259 258 265 101 115 131 138 133 126 175 229 240 206 142 142 155 187 192 186 205 241 257 267 258 246 296 12 355 339 339 336 330 333 333 330 333 335 333 333 336 338 339 342 344 342 345 352 351 346 347 350 353 0 8 3 351 343 344 334 291 254 240 239 240 240 242 246 249 251 253 253 252 252 253 252 252 254 251 249
211 221 229 249 251 223 228 250 258 257 104 129 150 146 136 153 215 240 234 126 138 156 152 161 190 194 210 242 256 267 269 279 309 329 330 325 324 320 319 322 322 321 324 324 322 325 329 329 329 330 334 335 338 343 346 342 340 340 342 351 1 2 350 346 348 341 319 295 259 246 241 239 242 248 251 250 250 252 253 253 253 250 247 248 249 249
210 209 219 242 250 240 239 256 258 254 105 137 157 148 154 204 235 219 112 119 137 154 151 169 207 210 224 250 266 275 278 285 296 305 309 311 312 311 313 316 316 317 318 316 319 323 322 319 320 322 323 327 329 331 334 335 334 334 337 340 344 350 351 347 342 338 340 325 265 240 234 236 238 242 246 245 243 244 244 244 248 249 245 243 244 246
209 213 218 213 217 241 244 235 251 275 112 140 155 156 187 220 155 89 118 137 145 167 194 225 244 251 260 272 280 283 286 290 291 294 299 303 306 308 311 313 313 314 315 315 317 319 315 312 313 314 314 316 316 318 323 326 325 325 328 328 327 330 336 337 327 327 342 341 288 250 243 246 239 230 232 237 239 242 241 237 239 244 246 245 243 246
200 222 244 209 189 220 232 208 198 73 125 152 169 193 215 211 135 92 155 224 235 244 257 265 261 257 268 281 286 288 291 293 292 296 301 302 305 309 309 310 311 311 311 312 312 311 309 308 307 306 306 308 307 308 313 317 317 316 316 316 318 320 320 316 308 307 319 324 306 277 257 255 250 239 236 236 238 245 247 245 240 239 244 247 245 244
197 223 305 302 216 241 278 301 70 89 135 170 207 274 260 204 197 214 265 280 273 263 263 267 267 263 261 271 281 286 288 291 295 300 303 303 305 307 307 308 309 310 310 309 308 308 307 305 303 302 302 301 300 301 303 307 309 310 309 307 309 314 315 311 304 298 296 301 304 299 289 280 273 266 262 258 251 247 247 249 247 241 242 246 246 243
215 230 310 290 247 267 275 264 245 230 216 212 231 243 231 221 223 230 255 268 267 262 257 255 262 266 259 262 274 281 285 292 298 300 303 304 304 304 306 306 306 307 308 307 306 306 304 302 300 298 296 295 295 296 297 298 299 302 303 302 304 307 308 306 305 302 297 289 283 284 289 292 287 278 275 273 265 255 247 245 249 250 249 249 248 247
210 203 216 241 243 257 258 238 230 242 241 235 239 237 227 227 233 238 251 259 257 253 248 249 256 258 256 258 266 275 283 292 297 299 302 304 303 304 304 303 304 306 306 306 305 304 303 302 299 295 292 291 291 292 292 291 291 294 297 298 299 299 298 299 301 300 298 294 286 275 273 279 281 276 275 277 275 268 259 251 249 253 257 257 254 251
187 184 208 236 233 237 257 260 247 244 241 241 245 240 232 232 235 236 239 243 245 244 242 245 250 251 255 260 265 275 284 290 294 298 301 302 303 304 303 302 302 303 304 304 303 302 301 300 298 295 292 289 287 288 288 287 286 286 289 291 292 290 289 291 293 294 294 294 293 284 272 270 274 274 273 276 281 282 276 265 256 253 254 255 257 257
138 163 204 234 234 240 254 258 251 245 243 240 235 234 237 237 232 230 230 230 233 237 238 242 244 246 255 265 271 279 286 290 294 298 300 302 303 303 302 301 301 300 300 301 300 299 297 295 294 293 292 290 288 286 284 283 282 281 282 286 288 287 286 284 284 287 289 290 291 288 280 274 273 275 277 280 285 292 292 285 275 265 255 250 249 251
162 205 229 231 241 246 248 255 255 255 261 252 231 225 229 229 225 226 225 224 228 231 232 236 241 246 257 268 275 280 284 288 293 296 298 300 301 301 301 301 299 297 297 297 295 293 291 290 289 289 289 291 291 288 284 281 279 278 278 281 284 285 285 282 279 280 283 285 286 285 282 281 277 271 271 275 283 294 299 298 293 283 271 259 250 245
211 241 244 235 253 269 278 286 282 270 275 282 266 238 230 224 221 223 222 223 227 227 226 232 240 250 261 269 274 279 283 287 291 295 297 298 299 300 300 299 298 297 295 294 291 289 287 286 286 286 287 288 289 288 285 281 277 275 276 276 277 280 282 279 273 273 276 279 281 280 279 281 281 274 269 268 270 275 282 288 292 292 287 279 267 255
Height
1512 1512 1512 1509 1505 1505 1505 1502 1499 1500 1500 1499 1500 1503 1504 1503 1505 1507 1509 1506 1506 1515 1517 1510 1509 1507 1509 1512 1511 1515 1519 1521 1523 1525 1527 1530 1532 1535 1537 1538 1539 1541 1544 1547 1549 1552 1554 1557 1559 1561 1562 1565 1567 1568 1569 1571 1573 1574 1576 1577 1578 1580 1582 1584 1585 1587 1588 1589 1591 1592 1594 1595 1596 1597 1598 1599 1600 1601 1602 1602 1603 1603 1604 1605 1605 1606
1512 1510 1506 1504 1501 1501 1502 1501 1502 1504 1505 1504 1502 1504 1504 1503 1505 1506 1508 1506 1503 1512 1514 1507 1508 1508 1505 1507 1508 1512 1516 1517 1520 1523 1526 1528 1531 1534 1536 1537 1539 1540 1543 1546 1548 1551 1553 1555 1557 1560 1561 1563 1565 1566 1568 1570 1572 1574 1575 1577 1578 1580 1581 1583 1585 1586 1588 1589 1591 1592 1594 1596 1597 1597 1598 1599 1600 1602 1602 1602 1603 1604 1604 1605 1606 1606
1512 1508 1501 1499 1499 1499 1502 1503 1505 1507 1506 1506 1503 1504 1505 1502 1504 1507 1507 1505 1503 1508 1510 1507 1509 1507 1502 1503 1505 1509 1512 1513 1517 1520 1523 1526 1529 1532 1534 1536 1537 1539 1541 1543 1546 1549 1551 1554 1556 1558 1560 1562 1564 1565 1567 1569 1571 1573 1575 1576 1577 1579 1581 1582 1584 1586 1587 1589 1590 1592 1594 1596 1597 1598 1599 1600 1600 1602 1602 1603 1603 1604 1604 1605 1606 1606
1510 1504 1497 1497 1500 1502 1504 1505 1506 1507 1507 1506 1504 1505 1505 1501 1504 1509 1508 1506 1505 1506 1507 1508 1509 1504 1501 1503 1504 1507 1509 1511 1514 1518 1522 1525 1527 1530 1532 1534 1535 1537 1539 1542 1545 1547 1550 1552 1554 1557 1559 1561 1563 1564 1566 1568 1570 1572 1573 1575 1576 1578 1580 1582 1583 1585 1587 1588 1590 1591 1593 1595 1596 1597 1598 1599 1600 1601 1602 1603 1603 1604 1604 1605 1606 1607
1502 1497 1494 1498 1502 1503 1505 1507 1507 1509 1508 1505 1503 1503 1502 1502 1504 1506 1507 1507 1505 1505 1505 1508 1512 1505 1502 1506 1505 1504 1506 1509 1512 1515 1519 1523 1525 1528 1530 1531 1533 1535 1538 1540 1542 1545 1547 1550 1552 1555 1557 1559 1561 1563 1565 1566 1568 1570 1572 1574 1575 1577 1579 1581 1583 1584 1586 1588 1589 1591 1592 1594 1595 1596 1597 1598 1600 1601 1601 1603 1603 1604 1604 1605 1606 1607
1497 1495 1497 1501 1503 1502 1504 1507 1506 1507 1506 1505 1504 1501 1500 1503 1504 1505 1508 1509 1509 1510 1506 1507 1517 1514 1505 1506 1505 1503 1506 1508 1510 1512 1516 1520 1523 1526 1527 1528 1531 1534 1536 1538 1540 1543 1545 1548 1551 1553 1555 1558 1560 1561 1563 1565 1567 1569 1571 1572 1574 1577 1578 1580 1582 1583 1585 1587 1589 1590 1591 1593 1594 1596 1597 1598 1600 1601 1601 1603 1604 1604 1604 1605 1606 1607
1495 1496 1499 1501 1502 1503 1504 1505 1504 1504 1505 1505 1501 1499 1502 1505 1506 1507 1508 1510 1511 1510 1506 1505 1515 1517 1508 1505 1503 1502 1507 1509 1510 1512 1514 1517 1520 1522 1525 1527 1529 1531 1534 1536 1539 1541 1543 1545 1548 1550 1553 1556 1558 1560 1562 1564 1566 1568 1569 1571 1573 1575 1577 1579 1581 1582 1584 1586 1588 1589 1591 1592 1594 1595 1597 1598 1599 1601 1601 1603 1604 1604 1604 1605 1606 1607
1493 1498 1499 1499 1501 1503 1504 1504 1501 1502 1506 1504 1497 1499 1504 1505 1507 1507 1507 1510 1507 1505 1506 1504 1508 1513 1510 1509 1505 1503 1509 1512 1512 1514 1513 1515 1517 1519 1522 1524 1527 1529 1531 1533 1536 1538 1540 1543 1545 1548 1551 1554 1556 1559 1561 1563 1565 1566 1568 1570 1572 1574 1576 1578 1580 1581 1583 1585 1587 1589 1590 1592 1594 1595 1596 1597 1598 1600 1601 1602 1603 1604 1604 1605 1605 1606
1493 1499 1499 1499 1502 1502 1502 1500 1497 1502 1505 1500 1497 1501 1503 1504 1506 1505 1506 1508 1505 1510 1515 1504 1506 1515 1513 1511 1509 1505 1511 1515 1514 1513 1512 1513 1515 1517 1519 1522 1524 1527 1529 1531 1533 1535 1538 1540 1543 1546 1549 1552 1555 1557 1559 1561 1563 1565 1566 1568 1570 1572 1575 1577 1578 1580 1582 1584 1586 1588 1590 1591 1593 1595 1596 1597 1598 1599 1600 1601 1602 1603 1604 1605 1605 1606
1493 1495 1495 1496 1499 1498 1497 1495 1495 1502 1503 1497 1498 1503 1502 1503 1505 1505 1507 1507 1508 1520 1520 1504 1505 1514 1512 1511 1511 1510 1515 1517 1514 1511 1509 1510 1512 1515 1516 1519 1521 1524 1527 1530 1531 1534 1536 1538 1541 1544 1547 1550 1553 1555 1557 1560 1562 1563 1565 1567 1569 1571 1573 1575 1577 1579 1581 1583 1585 1587 1589 1590 1592 1594 1595 1596 1597 1598 1599 1600 1602 1603 1603 1604 1605 1606
1492 1494 1494 1494 1496 1493 1491 1492 1495 1499 1499 1497 1501 1504 1505 1505 1505 1507 1506 1505 1516 1527 1516 1502 1502 1507 1514 1518 1514 1515 1518 1516 1514 1512 1510 1509 1510 1513 1515 1517 1519 1521 1523 1526 1529 1532 1535 1537 1540 1542 1545 1547 1551 1553 1555 1558 1560 1561 1563 1565 1567 1569 1572 1574 1575 1578 1580 1582 1584 1585 1587 1589 1591 1593 1594 1595 1596 1597 1599 1600 1601 1602 1603 1604 1605 1606
1494 1496 1495 1494 1496 1494 1493 1495 1497 1497 1497 1499 1502 1504 1508 1511 1511 1514 1512 1513 1527 1528 1508 1498 1499 1503 1516 1523 1516 1514 1516 1513 1514 1514 1513 1512 1511 1512 1513 1515 1517 1519 1521 1523 1525 1529 1532 1535 1538 1540 1543 1545 1548 1551 1553 1556 1558 1559 1561 1563 1565 1568 1570 1572 1574 1576 1579 1581 1582 1584 1586 1588 1590 1592 1593 1595 1596 1597 1598 1599 1600 1602 1603 1604 1604 1605
1494 1493 1493 1496 1498 1496 1498 1499 1499 1499 1498 1501 1502 1503 1512 1520 1524 1528 1524 1524 1528 1517 1500 1495 1501 1506 1514 1519 1515 1514 1515 1513 1514 1514 1514 1514 1513 1513 1513 1513 1515 1517 1519 1521 1522 1525 1528 1531 1535 1537 1540 1543 1545 1548 1550 1553 1555 1557 1559 1561 1563 1566 1568 1570 1573 1575 1577 1579 1581 1583 1585 1587 1589 1590 1592 1594 1595 1596 1597 1598 1600 1601 1602 1603 1604 1604
1497 1496 1494 1497 1498 1496 1497 1497 1499 1501 1499 1500 1500 1502 1511 1518 1530 1536 1527 1524 1523 1511 1499 1496 1503 1510 1515 1518 1515 1514 1516 1514 1514 1515 1515 1515 1514 1514 1512 1511 1513 1514 1517 1519 1520 1523 1525 1527 1531 1534 1537 1540 1542 1545 1548 1550 1553 1555 1556 1559 1561 1564 1566 1568 1571 1573 1575 1577 1579 1581 1583 1585 1587 1589 1591 1592 1594 1596 1597 1598 1599 1600 1602 1603 1603 1604
1499 1504 1498 1495 1497 1496 1495 1494 1494 1494 1495 1497 1493 1494 1502 1503 1514 1523 1518 1517 1517 1508 1502 1505 1508 1509 1513 1519 1515 1512 1515 1515 1515 1516 1515 1516 1514 1513 1512 1510 1511 1513 1515 1518 1519 1521 1523 1524 1528 1531 1534 1537 1539 1542 1545 1548 1550 1552 1554 1556 1559 1562 1564 1566 1569 1571 1573 1575 1578 1580 1582 1584 1585 1587 1589 1591 1593 1594 1596 1597 1598 1599 1601 1602 1603 1603
1492 1500 1497 1495 1497 1495 1495 1495 1492 1491 1494 1493 1488 1493 1499 1492 1493 1501 1499 1498 1500 1502 1506 1508 1507 1503 1506 1514 1512 1511 1515 1514 1516 1517 1515 1516 1515 1512 1513 1511 1511 1512 1513 1516 1518 1519 1521 1523 1525 1528 1530 1534 1536 1539 1542 1545 1547 1549 1551 1554 1557 1560 1562 1564 1567 1569 1571 1574 1576 1578 1580 1582 1584 1586 1588 1589 1591 1593 1594 1596 1597 1598 1599 1601 1602 1603
1494 1499 1497 1496 1497 1495 1497 1495 1492 1494 1495 1491 1492 1496 1493 1485 1487 1496 1499 1493 1493 1504 1507 1500 1504 1511 1512 1514 1512 1512 1515 1515 1516 1517 1516 1516 1516 1514 1514 1513 1512 1513 1513 1514 1516 1517 1519 1521 1524 1526 1528 1530 1533 1536 1539 1542 1544 1546 1549 1551 1555 1558 1560 1562 1565 1567 1569 1572 1574 1576 1577 1580 1582 1583 1586 1587 1589 1591 1593 1594 1596 1597 1598 1599 1600 1601
1493 1499 1498 1496 1497 1497 1497 1496 1493 1493 1492 1492 1495 1492 1487 1491 1493 1496 1503 1504 1503 1510 1505 1494 1503 1515 1515 1517 1517 1514 1517 1519 1518 1517 1517 1517 1516 1516 1515 1515 1515 1513 1512 1513 1513 1515 1517 1520 1522 1524 1526 1529 1531 1534 1536 1539 1542 1544 1546 1549 1552 1555 1557 1560 1563 1565 1567 1569 1571 1574 1575 1577 1580 1581 1584 1586 1588 1590 1591 1592 1594 1595 1597 1598 1599 1600
1491 1499 1501 1496 1497 1498 1495 1496 1496 1493 1491 1492 1492 1485 1488 1502 1503 1499 1504 1508 1510 1512 1503 1495 1501 1510 1515 1520 1522 1521 1522 1523 1520 1519 1519 1518 1518 1518 1517 1517 1516 1515 1514 1513 1512 1514 1515 1518 1521 1523 1525 1527 1529 1532 1534 1537 1540 1542 1544 1547 1550 1553 1555 1558 1561 1563 1565 1567 1569 1571 1573 1575 1577 1579 1582 1584 1586 1587 1589 1591 1592 1594 1595 1596 1597 1598
1491 1497 1502 1497 1495 1496 1494 1495 1496 1495 1492 1491 1491 1488 1489 1494 1496 1497 1495 1494 1501 1504 1502 1504 1507 1514 1525 1526 1526 1526 1526 1526 1524 1522 1522 1522 1522 1521 1520 1519 1517 1516 1515 1514 1513 1513 1514 1516 1519 1521 1524 1526 1528 1530 1532 1535 1538 1540 1543 1545 1548 1551 1553 1556 1559 1561 1563 1565 1567 1569 1571 1573 1575 1577 1579 1581 1583 1585 1587 1589 1590 1592 1593 1595 1596 1597
1492 1493 1500 1499 1494 1495 1500 1502 1502 1501 1495 1492 1492 1491 1492 1491 1489 1493 1490 1484 1490 1493 1496 1506 1513 1521 1530 1529 1526 1527 1527 1527 1527 1525 1525 1526 1525 1524 1523 1522 1520 1518 1516 1515 1514 1513 1515 1516 1518 1521 1523 1525 1528 1529 1530 1533 1535 1538 1541 1543 1546 1549 1551 1554 1556 1558 1560 1563 1565 1567 1569 1571 1573 1575 1577 1579 1581 1583 1585 1587 1588 1590 1592 1593 1594 1595
1497 1491 1493 1496 1497 1500 1507 1508 1507 1506 1501 1496 1494 1492 1495 1493 1492 1500 1500 1490 1487 1490 1487 1492 1511 1528 1532 1528 1527 1526 1527 1528 1527 1527 1527 1528 1527 1526 1525 1523 1521 1520 1518 1516 1514 1513 1514 1515 1518 1521 1522 1524 1526 1527 1529 1531 1533 1536 1538 1541 1544 1546 1549 1551 1554 1556 1558 1560 1563 1564 1567 1569 1571 1573 1575 1577 1579 1580 1582 1584 1586 1588 1589 1590 1592 1593
1502 1494 1493 1499 1502 1505 1510 1510 1508 1508 1505 1501 1499 1498 1497 1494 1494 1500 1503 1494 1489 1492 1488 1485 1508 1534 1533 1526 1527 1526 1527 1529 1529 1529 1529 1529 1529 1528 1526 1525 1522 1521 1519 1517 1515 1513 1512 1513 1515 1518 1520 1523 1525 1526 1528 1531 1532 1534 1536 1539 1541 1543 1546 1549 1551 1554 1555 1557 1560 1562 1565 1567 1569 1571 1573 1575 1577 1578 1580 1582 1583 1585 1586 1588 1590 1591
1503 1499 1501 1508 1509 1507 1508 1508 1508 1507 1505 1503 1503 1502 1500 1499 1499 1498 1498 1496 1489 1493 1495 1491 1510 1535 1534 1527 1527 1525 1527 1529 1528 1530 1530 1530 1531 1529 1528 1526 1524 1522 1520 1518 1517 1515 1514 1513 1514 1515 1518 1521 1524 1526 1528 1530 1532 1534 1535 1537 1539 1541 1543 1546 1549 1551 1552 1554 1557 1560 1562 1564 1566 1569 1571 1573 1575 1576 1578 1580 1581 1582 1584 1586 1588 1589
1506 1503 1504 1510 1513 1515 1514 1512 1510 1507 1504 1505 1506 1507 1505 1503 1503 1500 1498 1498 1495 1498 1499 1494 1510 1534 1534 1527 1526 1524 1526 1529 1528 1531 1532 1532 1533 1531 1530 1528 1526 1524 1522 1519 1518 1517 1516 1515 1515 1517 1518 1520 1522 1525 1527 1529 1531 1533 1534 1536 1537 1539 1542 1544 1546 1548 1549 1551 1554 1557 1559 1561 1564 1566 1568 1570 1573 1574 1576 1578 1580 1581 1581 1583 1585 1587
1509 1507 1508 1509 1510 1514 1517 1515 1513 1508 1505 1508 1509 1509 1509 1506 1505 1504 1500 1499 1503 1506 1504 1501 1516 1535 1533 1525 1526 1525 1526 1529 1530 1531 1533 1533 1534 1533 1532 1530 1528 1526 1524 1522 1521 1519 1519 1518 1518 1518 1519 1520 1522 1524 1526 1528 1530 1532 1533 1535 1536 1538 1540 1542 1545 1546 1547 1549 1551 1553 1556 1558 1561 1563 1565 1568 1570 1572 1574 1576 1578 1579 1579 1580 1582 1584
1511 1511 1512 1513 1510 1511 1516 1517 1513 1508 1507 1511 1513 1512 1512 1509 1508 1504 1500 1502 1504 1505 1510 1514 1520 1530 1532 1527 1527 1527 1528 1531 1532 1532 1533 1534 1534 1534 1534 1533 1531 1529 1527 1525 1523 1522 1522 1521 1521 1521 1521 1521 1522 1523 1525 1526 1528 1530 1532 1533 1535 1537 1538 1540 1543 1544 1546 1547 1549 1551 1553 1555 1558 1560 1562 1565 1567 1570 1572 1574 1576 1577 1578 1578 1579 1581
1513 1514 1515 1516 1515 1515 1516 1517 1514 1512 1512 1515 1516 1515 1514 1513 1511 1508 1507 1510 1509 1506 1516 1523 1519 1522 1530 1529 1527 1529 1530 1531 1533 1534 1535 1535 1535 1535 1535 1534 1533 1531 1529 1527 1525 1525 1524 1524 1524 1523 1523 1523 1523 1524 1524 1525 1526 1527 1529 1531 1533 1535 1537 1539 1540 1542 1544 1546 1547 1549 1551 1553 1556 1557 1560 1562 1564 1566 1569 1571 1573 1574 1576 1577 1577 1579
1514 1517 1518 1517 1518 1518 1517 1517 1516 1515 1517 1518 1517 1518 1518 1516 1515 1514 1514 1515 1514 1513 1520 1525 1521 1521 1526 1527 1528 1531 1531 1532 1534 1535 1536 1536 1535 1535 1535 1534 1534 1533 1531 1529 1528 1527 1527 1526 1526 1525 1525 1524 1524 1523 1524 1524 1525 1527 1528 1529 1531 1533 1536 1537 1538 1540 1542 1543 1545 1546 1548 1551 1553 1555 1557 1559 1561 1563 1565 1568 1570 1571 1573 1574 1575 1576
1517 1521 1521 1518 1519 1521 1520 1520 1519 1518 1519 1519 1518 1518 1519 1518 1517 1518 1517 1515 1516 1518 1519 1521 1524 1524 1524 1527 1530 1532 1533 1533 1535 1536 1537 1537 1536 1536 1535 1535 1535 1534 1534 1533 1531 1530 1529 1529 1528 1527 1526 1525 1525 1524 1524 1524 1525 1526 1528 1529 1530 1531 1533 1535 1537 1538 1539 1540 1542 1544 1545 1548 1550 1552 1554 1555 1557 1559 1562 1564 1566 1568 1569 1570 1572 1573
1520 1524 1524 1519 1520 1523 1522 1521 1520 1520 1520 1520 1519 1519 1519 1520 1519 1519 1519 1517 1518 1519 1519 1521 1526 1526 1526 1529 1531 1532 1534 1534 1534 1536 1537 1537 1537 1536 1536 1536 1536 1536 1536 1535 1534 1533 1531 1531 1530 1528 1527 1527 1526 1526 1525 1525 1525 1525 1527 1529 1529 1530 1531 1533 1535 1536 1537 1538 1540 1541 1543 1544 1546 1549 1550 1552 1554 1556 1558 1560 1563 1564 1565 1567 1568 1570
1520 1524 1525 1522 1521 1523 1524 1523 1522 1521 1520 1520 1520 1519 1520 1520 1519 1518 1519 1519 1519 1520 1521 1523 1523 1523 1526 1530 1531 1533 1534 1534 1535 1537 1537 1538 1538 1537 1537 1538 1538 1537 1537 1537 1536 1535 1534 1532 1531 1530 1530 1529 1528 1527 1526 1525 1525 1525 1525 1526 1528 1529 1530 1531 1532 1534 1535 1536 1538 1539 1540 1541 1543 1545 1547 1549 1550 1552 1555 1556 1559 1561 1562 1563 1565 1566
1520 1522 1523 1521 1520 1521 1524 1524 1522 1522 1522 1520 1518 1519 1520 1520 1519 1520 1521 1522 1522 1521 1521 1521 1521 1523 1528 1529 1530 1532 1533 1534 1536 1538 1539 1539 1539 1539 1539 1539 1539 1539 1539 1538 1538 1537 1535 1534 1533 1532 1532 1530 1529 1529 1527 1526 1525 1525 1524 1524 1525 1526 1527 1528 1529 1531 1532 1534 1535 1536 1537 1539 1540 1541 1543 1545 1547 1549 1551 1552 1555 1557 1558 1560 1561 1562
1523 1521 1520 1519 1519 1522 1524 1524 1523 1523 1522 1520 1518 1519 1521 1522 1521 1522 1522 1523 1524 1523 1521 1521 1523 1527 1530 1530 1531 1533 1535 1535 1538 1540 1541 1541 1540 1540 1540 1540 1540 1540 1540 1539 1539 1538 1537 1536 1534 1534 1533 1531 1531 1530 1528 1527 1526 1525 1524 1524 1524 1524 1525 1525 1526 1527 1528 1530 1532 1534 1535 1536 1537 1538 1540 1542 1543 1545 1547 1548 1550 1552 1554 1556 1558 1559
1523 1522 1521 1521 1519 1519 1522 1524 1528 1527 1521 1520 1521 1521 1523 1523 1522 1523 1524 1525 1525 1524 1524 1526 1528 1530 1532 1532 1533 1535 1537 1538 1539 1540 1541 1542 1542 1542 1542 1542 1542 1541 1541 1541 1540 1539 1538 1537 1536 1534 1533 1532 1531 1530 1529 1528 1527 1525 1524 1523 1523 1523 1523 1523 1524 1525 1526 1527 1528 1530 1532 1533 1535 1536 1537 1538 1540 1541 1543 1544 1547 1548 1550 1552 1554 1555
1524 1522 1521 1521 1519 1519 1521 1522 1526 1526 1522 1521 1522 1522 1524 1525 1523 1525 1527 1527 1526 1526 1526 1528 1531 1534 1536 1536 1536 1537 1537 1538 1538 1539 1541 1543 1543 1543 1543 1543 1543 1542 1542 1541 1541 1540 1539 1538 1537 1536 1534 1533 1532 1531 1530 1528 1527 1526 1525 1523 1523 1522 1522 1521 1522 1523 1522 1523 1526 1527 1529 1530 1531 1533 1534 1536 1537 1538 1539 1541 1543 1544 1546 1548 1550 1551
1526 1523 1521 1521 1521 1520 1518 1514 1516 1521 1522 1521 1522 1523 1524 1524 1524 1525 1526 1524 1525 1527 1527 1528 1533 1537 1538 1537 1538 1538 1538 1537 1536 1537 1540 1543 1543 1543 1543 1543 1543 1543 1543 1542 1542 1541 1540 1539 1539 1537 1536 1534 1533 1531 1530 1529 1528 1527 1525 1524 1523 1522 1521 1521 1520 1520 1520 1521 1523 1524 1525 1527 1528 1529 1531 1533 1534 1535 1536 1537 1538 1540 1542 1543 1545 1547
1528 1526 1524 1524 1522 1520 1518 1517 1519 1523 1523 1521 1522 1524 1525 1526 1526 1527 1527 1524 1524 1528 1529 1530 1533 1537 1538 1538 1538 1539 1539 1536 1534 1536 1540 1542 1543 1543 1544 1544 1543 1543 1543 1543 1542 1541 1540 1540 1539 1538 1537 1536 1533 1532 1531 1530 1529 1528 1526 1525 1523 1522 1521 1521 1520 1519 1519 1520 1521 1521 1523 1525 1526 1527 1529 1530 1531 1532 1533 1534 1535 1536 1537 1538 1540 1542
1530 1528 1526 1525 1522 1520 1522 1522 1522 1523 1523 1521 1523 1525 1527 1528 1528 1529 1530 1526 1523 1528 1532 1531 1533 1536 1538 1539 1539 1540 1538 1533 1530 1535 1541 1541 1541 1543 1543 1543 1543 1543 1542 1542 1542 1541 1540 1539 1538 1538 1538 1537 1535 1533 1532 1531 1530 1528 1527 1525 1523 1522 1521 1520 1519 1519 1519 1519 1519 1520 1521 1523 1524 1525 1526 1527 1528 1530 1531 1532 1532 1533 1534 1535 1536 1537
1530 1527 1526 1526 1522 1520 1523 1523 1518 1517 1519 1521 1523 1525 1527 1529 1529 1531 1532 1528 1527 1531 1534 1533 1533 1536 1538 1540 1540 1539 1537 1532 1530 1535 1540 1539 1539 1541 1542 1542 1543 1542 1541 1541 1541 1540 1539 1538 1538 1538 1537 1536 1535 1534 1533 1531 1530 1529 1527 1526 1524 1523 1522 1521 1519 1518 1518 1518 1518 1519 1519 1520 1521 1523 1524 1525 1526 1527 1528 1528 1529 1530 1531 1532 1533 1533
1529 1527 1526 1525 1521 1520 1524 1524 1517 1514 1516 1520 1523 1525 1527 1529 1531 1531 1530 1529 1531 1533 1534 1534 1535 1536 1538 1540 1540 1538 1538 1536 1536 1538 1539 1539 1539 1540 1540 1541 1541 1541 1541 1541 1539 1538 1538 1538 1537 1537 1536 1536 1534 1534 1533 1532 1530 1529 1527 1526 1524 1523 1522 1521 1519 1518 1518 1517 1517 1518 1518 1518 1519 1520 1521 1522 1522 1523 1524 1525 1526 1527 1527 1528 1529 1530
1529 1528 1527 1526 1523 1520 1520 1521 1519 1516 1517 1521 1524 1526 1529 1530 1529 1528 1528 1530 1532 1533 1534 1535 1536 1536 1538 1539 1539 1539 1539 1540 1540 1540 1540 1540 1540 1540 1539 1539 1538 1538 1539 1539 1538 1537 1537 1537 1536 1536 1535 1535 1534 1533 1532 1531 1530 1529 1528 1527 1525 1524 1522 1521 1520 1519 1517 1516 1516 1517 1517 1517 1517 1517 1518 1519 1519 1520 1520 1521 1522 1523 1524 1524 1525 1525
1526 1527 1525 1523 1522 1522 1522 1525 1527 1523 1520 1522 1525 1526 1528 1528 1526 1527 1530 1532 1532 1533 1535 1536 1535 1536 1537 1537 1537 1539 1539 1539 1540 1540 1540 1540 1540 1539 1538 1537 1536 1536 1536 1536 1536 1536 1536 1535 1534 1534 1534 1533 1533 1532 1531 1530 1529 1528 1527 1527 1526 1524 1523 1521 1520 1519 1518 1517 1516 1516 1517 1517 1516 1516 1516 1516 1516 1517 1517 1517 1519 1519 1520 1521 1521 1521
1524 1524 1520 1516 1518 1521 1522 1523 1523 1521 1520 1523 1524 1523 1524 1526 1526 1528 1530 1530 1531 1533 1534 1534 1534 1535 1536 1536 1536 1537 1537 1538 1539 1539 1539 1539 1538 1538 1537 1536 1534 1534 1533 1533 1534 1533 1533 1533 1532 1532 1532 1531 1530 1529 1529 1529 1528 1527 1526 1525 1524 1524 1523 1521 1520 1519 1518 1517 1516 1516 1516 1516 1516 1515 1514 1514 1514 1514 1514 1515 1515 1515 1517 1518 1518 1517
1522 1522 1521 1519 1518 1519 1518 1517 1518 1519 1521 1523 1524 1523 1524 1526 1527 1529 1530 1530 1531 1532 1533 1533 1534 1534 1535 1535 1535 1535 1536 1536 1537 1537 1537 1537 1537 1536 1535 1534 1533 1532 1531 1531 1531 1530 1530 1530 1529 1529 1529 1529 1528 1527 1527 1527 1526 1525 1525 1524 1522 1522 1521 1521 1520 1519 1517 1516 1516 1516 1515 1515 1514 1514 1513 1512 1512 1512 1512 1512 1512 1513 1514 1515 1515 1514
1521 1523 1524 1522 1519 1519 1518 1517 1518 1521 1521 1522 1523 1524 1525 1526 1527 1528 1529 1530 1530 1531 1531 1533 1533 1533 1533 1534 1533 1534 1534 1534 1534 1535 1535 1535 1535 1535 1534 1533 1532 1531 1529 1529 1528 1527 1527 1526 1526 1526 1526 1526 1526 1525 1525 1525 1524 1524 1523 1522 1521 1520 1519 1518 1518 1517 1516 1515 1515 1515 1514 1513 1512 1512 1511 1511 1511 1510 1510 1510 1510 1510 1511 1512 1512 1511
1521 1523 1524 1522 1521 1522 1519 1516 1516 1519 1519 1521 1522 1523 1524 1525 1526 1527 1528 1528 1529 1530 1530 1531 1531 1532 1532 1532 1532 1532 1532 1532 1532 1532 1532 1533 1532 1532 1532 1531 1530 1529 1527 1526 1525 1524 1524 1523 1523 1522 1522 1522 1522 1522 1522 1522 1522 1521 1521 1520 1519 1518 1517 1516 1515 1514 1514 1513 1513 1512 1512 1512 1511 1510 1509 1509 1509 1508 1508 1507 1507 1507 1508 1509 1509 1509
1517 1521 1522 1520 1519 1520 1517 1514 1516 1519 1519 1520 1521 1521 1522 1523 1524 1525 1526 1526 1527 1528 1529 1529 1530 1530 1530 1531 1531 1531 1530 1530 1530 1530 1529 1530 1530 1529 1529 1528 1527 1526 1525 1524 1522 1522 1521 1520 1519 1519 1518 1519 1519 1519 1518 1518 1518 1518 1518 1517 1517 1516 1515 1514 1513 1511 1511 1511 1510 1509 1509 1509 1509 1508 1507 1507 1506 1506 1506 1505 1505 1505 1505 1506 1506 1506
1517 1519 1518 1517 1517 1517 1514 1513 1516 1517 1516 1517 1518 1519 1519 1521 1522 1523 1524 1525 1525 1526 1527 1527 1528 1528 1529 1529 1529 1529 1529 1529 1528 1528 1527 1527 1527 1526 1526 1526 1525 1524 1523 1521 1520 1519 1518 1517 1516 1515 1515 1514 1515 1515 1515 1514 1514 1514 1515 1514 1514 1513 1513 1512 1511 1509 1508 1508 1508 1507 1507 1506 1506 1505 1505 1504 1503 1503 1503 1503 1503 1502 1502 1502 1503 1503
1516 1515 1514 1516 1516 1513 1510 1511 1513 1514 1512 1511 1513 1516 1518 1519 1520 1521 1522 1523 1523 1524 1525 1525 1526 1526 1527 1528 1528 1528 1527 1527 1526 1526 1525 1524 1524 1524 1523 1522 1522 1521 1520 1519 1518 1517 1516 1515 1514 1513 1511 1511 1511 1511 1511 1511 1510 1510 1511 1511 1511 1510 1510 1509 1509 1507 1507 1506 1506 1505 1504 1503 1502 1502 1502 1501 1501 1500 1500 1500 1500 1500 1499 1499 1499 1499
1513 1512 1511 1514 1513 1510 1508 1510 1513 1513 1511 1510 1512 1514 1516 1517 1518 1519 1520 1521 1521 1522 1523 1524 1524 1525 1525 1525 1526 1526 1525 1525 1524 1524 1523 1522 1521 1520 1520 1519 1518 1517 1517 1516 1515 1514 1513 1512 1511 1510 1509 1508 1507 1507 1506 1507 1507 1507 1507 1508 1508 1507 1507 1506 1506 1505 1504 1504 1503 1503 1502 1501 1500 1499 1498 1498 1498 1497 1497 1497 1497 1496 1496 1496 1496 1495